Weather History for KBDN - March, 2014

Change the Weather History Date:

Thursday, March 27, 2014

  Actual Average (KRDM) Record (KRDM)
Temperature  
Mean Temperature 42 °F 42 °F  
Max Temperature 50 °F 56 °F 77 °F (2015)
Min Temperature 33 °F 27 °F 12 °F (2008)
Degree Days  
Heating Degree Days 24 23  
Month to date heating degree days 685  
Since 1 July heating degree days 5358  
Cooling Degree Days 0 0  
Month to date cooling degree days 0  
Year to date cooling degree days 0  
Moisture  
Dew Point 30 °F    
Average Humidity 67    
Maximum Humidity 87    
Minimum Humidity 40    
Precipitation  
Precipitation 0.00 in 0.02 in 0.20 in (1979)
Month to date precipitation 0.57  
Year to date precipitation 2.19  
Sea Level Pressure  
Sea Level Pressure 29.77 in    
Wind  
Wind Speed 11 mph (SW)    
Max Wind Speed 23 mph    
Max Gust Speed 33 mph    
Visibility 10 miles    
Events Rain , Snow    
T = Trace of Precipitation, MM = Missing Value Source: NWS Daily Summary

Daily Weather History Graph

Daily Weather History Graph

Search for Another Location

Airport or City:

Trip Planner

Search our weather history database for the weather conditions in past years. The results will help you decide how hot, cold, wet, or windy it might be!

Date:

Astronomy

Mar. 27, 2014 Rise Set
Actual Time 6:54 AM PDT 7:25 PM PDT
Civil Twilight 6:26 AM PDT 7:54 PM PDT
Nautical Twilight 5:51 AM PDT 8:29 PM PDT
Astronomical Twilight 5:16 AM PDT 9:04 PM PDT
Moon 4:56 AM PDT (3/27) 4:13 PM PDT (3/27)
Length of Visible Light 13h 28m
Length of Day
12h 30m
Waning Crescent, 12% of the Moon is Illuminated
Mar 27
Waning Crescent
Mar 30
New
Apr 7
First Quarter
Apr 15
Full
Apr 22
Last Quarter

Hourly Weather History & Observations

Time (PDT) Temp. Windchill Dew Point Humidity Pressure Visibility Wind Dir Wind Speed Gust Speed Precip Events Conditions
12:15 AM 33.8 °F 30.8 °F 28.4 °F 81% 29.63 in 10.0 mi SSE 3.5 mph - N/A   Clear
12:35 AM 33.8 °F 28.6 °F 28.4 °F 81% 29.63 in 10.0 mi SW 5.8 mph - N/A   Clear
12:55 AM 35.6 °F 29.2 °F 28.4 °F 75% 29.62 in 10.0 mi South 8.1 mph - N/A   Clear
1:15 AM 35.6 °F 29.9 °F 28.4 °F 75% 29.62 in 10.0 mi SSE 6.9 mph - N/A   Clear
1:35 AM 35.6 °F 29.2 °F 28.4 °F 75% 29.63 in 10.0 mi SSE 8.1 mph - N/A   Scattered Clouds
1:55 AM 35.6 °F 30.7 °F 26.6 °F 70% 29.63 in 10.0 mi SSE 5.8 mph - N/A   Mostly Cloudy
2:15 AM 35.6 °F 29.9 °F 28.4 °F 75% 29.64 in 10.0 mi SSW 6.9 mph - N/A   Scattered Clouds
2:35 AM 35.6 °F 28.0 °F 28.4 °F 75% 29.64 in 10.0 mi SW 10.4 mph - N/A   Partly Cloudy
2:55 AM 35.6 °F 28.0 °F 28.4 °F 75% 29.64 in 10.0 mi SSW 10.4 mph - N/A Rain Light Rain
3:15 AM 35.6 °F 30.7 °F 30.2 °F 81% 29.64 in 10.0 mi SSW 5.8 mph - N/A   Scattered Clouds
3:35 AM 35.6 °F 28.0 °F 30.2 °F 81% 29.64 in 10.0 mi SSW 10.4 mph - N/A   Mostly Cloudy
3:55 AM 35.6 °F 28.0 °F 30.2 °F 81% 29.65 in 9.0 mi SSW 10.4 mph 17.3 mph N/A Rain Light Rain
4:15 AM 35.6 °F 27.5 °F 32.0 °F 87% 29.64 in 10.0 mi South 11.5 mph 16.1 mph N/A   Partly Cloudy
4:35 AM 35.6 °F 27.1 °F 30.2 °F 81% 29.64 in 10.0 mi SSW 12.7 mph 18.4 mph N/A   Partly Cloudy
4:55 AM 35.6 °F 28.0 °F 30.2 °F 81% 29.65 in 10.0 mi SSW 10.4 mph 16.1 mph N/A Snow Light Snow
5:15 AM 35.6 °F 28.6 °F 30.2 °F 81% 29.66 in 10.0 mi SW 9.2 mph - N/A   Partly Cloudy
5:35 AM 35.6 °F 28.0 °F 30.2 °F 81% 29.66 in 10.0 mi SW 10.4 mph - N/A Rain Light Rain
5:55 AM 35.6 °F 29.2 °F 32.0 °F 87% 29.66 in 10.0 mi SW 8.1 mph - N/A   Partly Cloudy
6:15 AM 35.6 °F 27.5 °F 30.2 °F 81% 29.66 in 10.0 mi SW 11.5 mph 17.3 mph N/A   Partly Cloudy
6:35 AM 35.6 °F 28.0 °F 30.2 °F 81% 29.66 in 10.0 mi SW 10.4 mph - N/A   Mostly Cloudy
6:55 AM 35.6 °F 26.2 °F 30.2 °F 81% 29.67 in 10.0 mi SW 15.0 mph 19.6 mph N/A   Mostly Cloudy
7:15 AM 35.6 °F 26.6 °F 30.2 °F 81% 29.68 in 10.0 mi SW 13.8 mph 19.6 mph N/A Rain Light Rain
7:35 AM 35.6 °F 28.6 °F 30.2 °F 81% 29.69 in 10.0 mi WSW 9.2 mph - N/A   Scattered Clouds
7:55 AM 37.4 °F 28.9 °F 32.0 °F 81% 29.70 in 10.0 mi SW 13.8 mph 20.7 mph N/A   Clear
8:15 AM 37.4 °F 29.3 °F 32.0 °F 81% 29.70 in 10.0 mi SW 12.7 mph 20.7 mph N/A Rain Light Rain
8:35 AM 37.4 °F 28.9 °F 32.0 °F 81% 29.70 in 10.0 mi SW 13.8 mph 20.7 mph N/A   Clear
8:55 AM 37.4 °F 28.9 °F 32.0 °F 81% 29.71 in 10.0 mi SW 13.8 mph 21.9 mph N/A   Clear
9:15 AM 39.2 °F 30.2 °F 32.0 °F 75% 29.72 in 10.0 mi SW 17.3 mph 25.3 mph N/A   Clear
9:35 AM 41.0 °F 32.8 °F 32.0 °F 70% 29.73 in 10.0 mi SW 16.1 mph - N/A   Clear
9:55 AM 39.2 °F 29.8 °F 32.0 °F 75% 29.74 in 5.0 mi SW 18.4 mph 26.5 mph N/A Rain Light Rain
10:15 AM 39.2 °F 30.2 °F 33.8 °F 81% 29.75 in 10.0 mi SW 17.3 mph - N/A   Partly Cloudy
10:35 AM 39.2 °F 29.8 °F 35.6 °F 87% 29.76 in 10.0 mi SW 18.4 mph 24.2 mph N/A Rain Light Rain
10:55 AM 41.0 °F 32.5 °F 33.8 °F 76% 29.77 in 10.0 mi SSW 17.3 mph - N/A   Clear
11:15 AM 44.6 °F 37.2 °F 32.0 °F 61% 29.77 in 10.0 mi SW 17.3 mph - N/A   Partly Cloudy
11:35 AM 44.6 °F 37.2 °F 32.0 °F 61% 29.78 in 10.0 mi SW 17.3 mph 23.0 mph N/A   Clear
11:55 AM 44.6 °F 37.8 °F 32.0 °F 61% 29.79 in 10.0 mi SW 15.0 mph 23.0 mph N/A   Clear
12:15 PM 46.4 °F 39.2 °F 26.6 °F 46% 29.79 in 10.0 mi WSW 18.4 mph 24.2 mph N/A   Clear
12:35 PM 48.2 °F - 24.8 °F 40% 29.79 in 10.0 mi SW 16.1 mph 24.2 mph N/A   Clear
12:55 PM 48.2 °F - 24.8 °F 40% 29.80 in 10.0 mi SW 18.4 mph 27.6 mph N/A   Clear
1:15 PM 48.2 °F - 26.6 °F 43% 29.79 in 10.0 mi WSW 12.7 mph - N/A   Clear
1:35 PM 48.2 °F - 28.4 °F 46% 29.80 in 10.0 mi WSW 19.6 mph - N/A   Scattered Clouds
1:55 PM 48.2 °F - 32.0 °F 54% 29.81 in 9.0 mi WSW 13.8 mph 33.4 mph N/A Rain Light Rain
2:15 PM 48.2 °F - 28.4 °F 46% 29.81 in 10.0 mi WSW 16.1 mph 21.9 mph N/A   Scattered Clouds
2:35 PM 48.2 °F - 28.4 °F 46% 29.81 in 10.0 mi WSW 16.1 mph 20.7 mph N/A   Scattered Clouds
2:55 PM 50.0 °F - 26.6 °F 40% 29.81 in 10.0 mi WSW 18.4 mph 25.3 mph N/A   Scattered Clouds
3:15 PM 50.0 °F - 26.6 °F 40% 29.82 in 10.0 mi WSW 17.3 mph 26.5 mph N/A   Clear
3:35 PM 50.0 °F - 26.6 °F 40% 29.82 in 10.0 mi SW 20.7 mph 28.8 mph N/A   Scattered Clouds
3:55 PM 50.0 °F - 26.6 °F 40% 29.82 in 10.0 mi WSW 18.4 mph 23.0 mph N/A   Scattered Clouds
4:15 PM 48.2 °F - 26.6 °F 43% 29.83 in 10.0 mi WSW 15.0 mph 32.2 mph N/A   Clear
4:35 PM 50.0 °F - 26.6 °F 40% 29.83 in 10.0 mi SW 18.4 mph 26.5 mph N/A   Clear
4:55 PM 50.0 °F - 26.6 °F 40% 29.83 in 10.0 mi WSW 20.7 mph 28.8 mph N/A   Clear
5:15 PM 48.2 °F - 28.4 °F 46% 29.83 in 10.0 mi SW 20.7 mph 28.8 mph N/A   Clear
5:35 PM 48.2 °F - 26.6 °F 43% 29.83 in 10.0 mi WSW 23.0 mph 27.6 mph N/A   Clear
5:55 PM 44.6 °F 37.4 °F 28.4 °F 53% 29.85 in 10.0 mi SW 16.1 mph 25.3 mph N/A   Clear
6:15 PM 44.6 °F 37.2 °F 28.4 °F 53% 29.85 in 10.0 mi SW 17.3 mph 23.0 mph N/A   Clear
6:35 PM 44.6 °F 38.1 °F 28.4 °F 53% 29.86 in 10.0 mi SW 13.8 mph - N/A   Partly Cloudy
6:55 PM 44.6 °F 38.8 °F 30.2 °F 57% 29.87 in 10.0 mi SSW 11.5 mph - N/A   Mostly Cloudy
7:15 PM 42.8 °F 35.8 °F 30.2 °F 61% 29.87 in 10.0 mi SSW 13.8 mph - N/A   Mostly Cloudy
7:35 PM 41.0 °F 33.5 °F 30.2 °F 65% 29.87 in 10.0 mi SW 13.8 mph - N/A   Scattered Clouds
7:55 PM 41.0 °F 32.8 °F 28.4 °F 61% 29.87 in 10.0 mi SW 16.1 mph 21.9 mph N/A   Clear
8:15 PM 41.0 °F 33.5 °F 30.2 °F 65% 29.88 in 10.0 mi SW 13.8 mph - N/A   Clear
8:35 PM 41.0 °F 34.7 °F 30.2 °F 65% 29.89 in 10.0 mi SW 10.4 mph - N/A   Clear
8:55 PM 41.0 °F 35.2 °F 30.2 °F 65% 29.89 in 10.0 mi SW 9.2 mph - N/A   Partly Cloudy
9:15 PM 39.2 °F 32.0 °F 30.2 °F 70% 29.90 in 10.0 mi SSW 11.5 mph - N/A   Clear
9:35 PM 39.2 °F 32.5 °F 32.0 °F 75% 29.90 in 10.0 mi SSW 10.4 mph - N/A   Clear
9:55 PM 39.2 °F 32.0 °F 32.0 °F 75% 29.91 in 10.0 mi SW 11.5 mph - N/A   Scattered Clouds
10:15 PM 39.2 °F 32.0 °F 32.0 °F 75% 29.91 in 10.0 mi SW 11.5 mph - N/A   Mostly Cloudy
10:35 PM 39.2 °F 30.8 °F 32.0 °F 75% 29.91 in 10.0 mi SW 15.0 mph 19.6 mph N/A   Partly Cloudy
10:55 PM 39.2 °F 31.6 °F 32.0 °F 75% 29.92 in 10.0 mi SSW 12.7 mph - N/A   Scattered Clouds
11:15 PM 39.2 °F 31.6 °F 32.0 °F 75% 29.93 in 10.0 mi SSW 12.7 mph - N/A   Scattered Clouds
11:35 PM 39.2 °F 32.0 °F 32.0 °F 75% 29.93 in 10.0 mi South 11.5 mph - N/A   Mostly Cloudy
11:55 PM 39.2 °F 32.5 °F 32.0 °F 75% 29.93 in 10.0 mi SSW 10.4 mph - N/A   Mostly Cloudy